period_start,C,m1,H,J0,J1,J2,J3,J4,J5,JA,JB,JC,JD,JJ,JK,JN,#
2018-10-09 00:03:09,0.00,0.00,0.00,24.37,28.52,30.72,0.01,-2.50,1021.44,2021.00,3598.96,3071.00,3534.99,0.00,0.00,0.00,0000 0000 0000 A000 020008
2018-10-09 00:08:10,0.00,0.00,0.00,24.40,28.55,30.70,0.01,-2.50,1021.38,2021.00,3598.87,3071.00,3534.97,0.00,0.00,0.00,0000 0000 0000 A000 020008
2018-10-09 00:13:11,0.00,0.00,0.00,24.40,28.56,30.71,0.01,-2.52,1021.25,2020.99,3598.85,3071.00,3534.98,0.00,0.00,0.00,0000 0000 0000 A000 020008
2018-10-09 00:18:12,0.00,0.00,0.00,24.42,28.57,30.79,0.01,-2.50,1021.26,2020.99,3598.55,3071.00,3534.84,0.00,0.00,0.00,0000 0000 0000 A000 020008
2018-10-09 00:23:13,0.00,0.00,0.00,24.43,28.59,30.78,0.01,-2.52,1021.07,2020.99,3598.12,3070.98,3534.38,0.00,0.00,0.00,0000 0000 0000 A000 020008
2018-10-09 00:28:14,0.00,0.00,0.00,24.45,28.60,30.80,0.01,-2.51,1021.02,2020.97,3598.05,3070.91,3534.11,0.00,0.00,0.00,0000 0000 0000 A000 020008
2018-10-09 00:33:16,0.00,0.00,0.00,24.46,28.62,30.79,0.01,-2.51,1020.99,2020.94,3598.00,3070.56,3534.01,0.00,0.00,0.00,0000 0000 0000 A000 020008
2018-10-09 00:38:17,0.00,0.00,0.00,24.47,28.62,30.84,0.01,-2.51,1020.86,2020.94,3598.00,3070.30,3534.00,0.00,0.00,0.00,0000 0000 0000 A000 020008
2018-10-09 00:43:18,0.00,0.00,0.00,24.50,28.65,30.85,0.01,-2.52,1020.87,2020.64,3598.00,3070.07,3534.00,0.00,0.00,0.00,0000 0000 0000 A000 020008
2018-10-09 00:48:19,0.00,0.00,0.00,24.50,28.66,30.87,0.00,-2.48,1020.92,2020.39,3597.98,3070.01,3533.99,0.00,0.00,0.00,0000 0000 0000 A000 020008
2018-10-09 00:53:20,0.00,0.00,0.00,24.50,28.67,30.85,0.01,-2.53,1020.96,2020.28,3597.98,3070.00,3533.96,0.00,0.00,0.00,0000 0000 0000 A000 020008
2018-10-09 00:58:21,0.00,0.00,0.00,24.52,28.69,30.88,0.01,-2.53,1020.83,2020.20,3597.95,3070.01,3533.95,0.00,0.00,0.00,0000 0000 0000 A000 020008
2018-10-09 01:03:22,0.00,0.00,0.00,24.52,28.70,30.89,0.01,-2.52,1020.57,2020.09,3597.83,3070.00,3533.82,0.00,0.00,0.00,0000 0000 0000 A000 020008
2018-10-09 01:08:24,0.00,0.00,0.00,24.53,28.72,30.90,0.00,-2.54,1020.56,2020.04,3597.38,3070.00,3533.38,0.00,0.00,0.00,0000 0000 0000 A000 020008
2018-10-09 01:13:25,0.00,0.00,0.00,24.55,28.73,30.86,0.00,-2.69,1020.54,2020.02,3597.09,3069.99,3533.08,0.00,0.00,0.00,0000 0000 0000 A000 020008
2018-10-09 01:18:26,0.00,0.00,0.00,24.55,28.75,30.86,0.00,-2.61,1020.53,2020.00,3597.01,3069.94,3533.01,0.00,0.00,0.00,0000 0000 0000 A000 020008
2018-10-09 01:23:27,0.00,0.00,0.00,24.56,28.76,30.91,0.01,-2.52,1020.52,2020.00,3597.00,3069.51,3532.99,0.00,0.00,0.00,0000 0000 0000 A000 020008
2018-10-09 01:28:28,0.00,0.00,0.00,24.57,28.77,30.91,0.00,-2.53,1020.52,2020.00,3597.00,3069.33,3532.99,0.00,0.00,0.00,0000 0000 0000 A000 020008
2018-10-09 01:33:29,0.00,0.00,0.00,24.60,28.79,30.96,0.00,-2.52,1020.52,2020.00,3597.00,3069.13,3532.99,0.00,0.00,0.00,0000 0000 0000 A000 020008
2018-10-09 01:38:31,0.00,0.00,0.00,24.61,28.80,30.97,0.00,-2.48,1020.48,2019.99,3596.98,3069.05,3532.97,0.00,0.00,0.00,0000 0000 0000 A000 020008
2018-10-09 01:43:32,0.00,0.00,0.00,24.63,28.81,30.95,0.00,-2.53,1020.23,2019.98,3596.93,3069.00,3532.76,0.00,0.00,0.00,0000 0000 0000 A000 020008
2018-10-09 01:48:33,0.00,0.00,0.00,24.65,28.82,30.98,0.00,-2.53,1020.08,2019.97,3596.66,3069.00,3532.31,0.00,0.00,0.00,0000 0000 0000 A000 020008
2018-10-09 01:53:35,0.00,0.00,0.00,24.67,28.84,30.99,0.00,-2.51,1020.04,2019.98,3596.81,3069.00,3532.39,0.00,0.00,0.00,0000 0000 0000 A000 020008
2018-10-09 01:58:36,0.00,0.00,0.00,24.67,28.85,31.03,0.00,-2.52,1020.04,2019.97,3596.66,3069.00,3532.26,0.00,0.00,0.00,0000 0000 0000 A000 020008
2018-10-09 02:03:38,0.00,0.00,0.00,24.68,28.87,31.04,0.00,-2.53,1020.03,2019.96,3596.22,3069.00,3532.04,0.00,0.00,0.00,0000 0000 0000 A000 020008
2018-10-09 02:08:39,0.00,0.00,0.00,24.70,28.87,31.07,0.00,-2.52,1019.98,2019.90,3596.09,3068.99,3532.00,0.00,0.00,0.00,0000 0000 0000 A000 020008
2018-10-09 02:13:40,0.00,0.00,0.00,24.70,28.90,31.06,0.00,-2.58,1020.00,2019.78,3596.03,3068.98,3532.00,0.00,0.00,0.00,0000 0000 0000 A000 020008
2018-10-09 02:18:42,0.00,0.00,0.00,24.70,28.90,31.06,0.00,-2.50,1019.88,2019.69,3596.03,3068.96,3532.00,0.00,0.00,0.00,0000 0000 0000 A000 020008
2018-10-09 02:23:43,0.00,0.00,0.00,24.71,28.91,31.07,0.00,-2.47,1019.68,2019.39,3596.00,3068.86,3531.99,0.00,0.00,0.00,0000 0000 0000 A000 020008
2018-10-09 02:28:44,0.00,0.00,0.00,24.72,28.92,31.08,0.00,-2.52,1019.56,2019.15,3596.00,3068.55,3531.99,0.00,0.00,0.00,0000 0000 0000 A000 020008
2018-10-09 02:33:46,0.00,0.00,0.00,24.72,28.94,31.07,0.01,-2.50,1019.55,2019.12,3596.00,3068.47,3531.99,0.00,0.00,0.00,0000 0000 0000 A000 020008
2018-10-09 02:38:47,0.00,0.00,0.00,24.73,28.95,31.08,0.00,-2.52,1019.55,2019.04,3596.00,3068.22,3531.94,0.00,0.00,0.00,0000 0000 0000 A000 020008
2018-10-09 02:43:48,0.00,0.00,0.00,24.75,28.95,31.12,0.00,-2.51,1019.50,2019.03,3595.97,3068.05,3531.57,0.00,0.00,0.00,0000 0000 0000 A000 020008
2018-10-09 02:48:48,0.00,0.00,0.00,24.75,28.97,31.11,0.00,-2.51,1019.33,2019.00,3595.85,3068.01,3531.23,0.00,0.00,0.00,0000 0000 0000 A000 020008
2018-10-09 02:53:49,0.00,0.00,0.00,24.75,28.97,31.11,0.00,-2.52,1019.10,2019.00,3595.52,3068.00,3531.05,0.00,0.00,0.00,0000 0000 0000 A000 020008
2018-10-09 02:58:50,0.00,0.00,0.00,24.77,28.99,31.11,0.00,-2.57,1019.06,2019.00,3595.32,3068.00,3531.01,0.00,0.00,0.00,0000 0000 0000 A000 020008
2018-10-09 03:03:51,0.00,0.00,0.00,24.79,29.00,31.11,0.00,-2.62,1019.06,2019.00,3595.19,3067.99,3531.00,0.00,0.00,0.00,0000 0000 0000 A000 020008
2018-10-09 03:08:53,0.00,0.00,0.00,24.80,29.00,31.13,0.00,-2.67,1019.06,2019.00,3595.11,3067.99,3531.00,0.00,0.00,0.00,0000 0000 0000 A000 020008
2018-10-09 03:13:54,0.00,0.00,0.00,24.81,29.01,31.12,0.00,-2.66,1019.06,2019.00,3595.03,3067.99,3531.00,0.00,0.00,0.00,0000 0000 0000 A000 020008
2018-10-09 03:18:55,0.00,0.00,0.00,24.83,29.02,31.11,0.00,-2.63,1019.05,2019.00,3595.01,3067.99,3531.00,0.00,0.00,0.00,0000 0000 0000 A000 020008
2018-10-09 03:23:56,0.00,0.00,0.00,24.85,29.03,31.11,0.00,-2.68,1018.99,2018.99,3595.01,3067.99,3531.00,0.00,0.00,0.00,0000 0000 0000 A000 020008
2018-10-09 03:28:57,0.00,0.00,0.00,24.87,29.05,31.13,0.00,-2.63,1019.06,2018.98,3595.00,3067.96,3530.98,0.00,0.00,0.00,0000 0000 0000 A000 020008
2018-10-09 03:33:58,0.00,0.00,0.00,24.90,29.05,31.15,0.00,-2.67,1019.05,2018.98,3595.00,3067.91,3530.97,0.00,0.00,0.00,0000 0000 0000 A000 020008
2018-10-09 03:39:00,0.00,0.00,0.00,24.93,29.07,31.22,0.00,-2.70,1018.95,2018.96,3594.99,3067.50,3530.74,0.00,0.00,0.00,0000 0000 0000 A000 020008
2018-10-09 03:44:01,0.00,0.00,0.00,24.96,29.07,31.20,0.00,-2.70,1018.66,2018.93,3594.97,3067.14,3530.31,0.00,0.00,0.00,0000 0000 0000 A000 020008
2018-10-09 03:49:02,0.00,0.00,0.00,24.99,29.10,31.27,0.00,-2.68,1018.58,2018.89,3594.96,3067.06,3530.10,0.00,0.00,0.00,0000 0000 0000 A000 020008
2018-10-09 03:54:03,0.00,0.00,0.00,25.03,29.10,31.29,0.00,-2.63,1018.57,2018.71,3594.87,3067.01,3530.03,0.00,0.00,0.00,0000 0000 0000 A000 020008
2018-10-09 03:59:04,0.00,0.00,0.00,25.07,29.12,31.31,0.00,-2.60,1018.57,2018.36,3594.40,3067.00,3530.00,0.00,0.00,0.00,0000 0000 0000 A000 020008
2018-10-09 04:04:05,0.00,0.00,0.00,25.10,29.14,31.32,0.00,-2.63,1018.57,2018.20,3594.21,3067.00,3530.00,0.00,0.00,0.00,0000 0000 0000 A000 020008
2018-10-09 04:09:06,0.00,0.00,0.00,25.13,29.15,31.35,0.00,-2.66,1018.57,2018.08,3594.09,3067.00,3530.00,0.00,0.00,0.00,0000 0000 0000 A000 020008
2018-10-09 04:14:08,0.00,0.00,0.00,25.17,29.17,31.40,0.00,-2.70,1018.57,2018.05,3594.03,3066.99,3529.99,0.00,0.00,0.00,0000 0000 0000 A000 020008
2018-10-09 04:19:09,0.00,0.00,0.00,25.19,29.19,31.40,0.00,-2.66,1018.57,2018.02,3594.00,3066.96,3529.95,0.00,0.00,0.00,0000 0000 0000 A000 020008
2018-10-09 04:24:10,0.00,0.00,0.00,25.21,29.21,31.42,0.00,-2.67,1018.57,2018.00,3594.00,3066.91,3529.80,0.00,0.00,0.00,0000 0000 0000 A000 020008
2018-10-09 04:29:11,0.00,0.00,0.00,25.22,29.22,31.50,0.00,-2.68,1018.56,2018.01,3594.00,3066.75,3529.55,0.00,0.00,0.00,0000 0000 0000 A000 020008
2018-10-09 04:34:12,0.00,0.00,0.00,25.25,29.25,31.50,0.00,-2.71,1018.54,2018.00,3593.98,3066.37,3529.18,0.00,0.00,0.00,0000 0000 0000 A000 020008
2018-10-09 04:39:13,0.00,0.00,0.00,25.27,29.26,31.52,0.00,-2.73,1018.50,2018.00,3593.69,3066.03,3529.00,0.00,0.00,0.00,0000 0000 0000 A000 020008
2018-10-09 04:44:14,0.00,0.00,0.00,25.29,29.29,31.54,0.00,-2.73,1018.31,2017.99,3593.24,3066.00,3529.00,0.00,0.00,0.00,0000 0000 0000 A000 020008
2018-10-09 04:49:15,0.00,0.00,0.00,25.31,29.30,31.58,0.00,-2.68,1018.17,2017.96,3593.05,3066.00,3528.98,0.00,0.00,0.00,0000 0000 0000 A000 020008
2018-10-09 04:54:16,0.00,0.00,0.00,25.34,29.32,31.58,0.00,-2.73,1018.21,2017.98,3593.01,3065.99,3528.98,0.00,0.00,0.00,0000 0000 0000 A000 020008
2018-10-09 04:59:17,0.00,0.00,0.00,25.36,29.35,31.60,0.00,-2.75,1018.15,2017.96,3593.00,3065.98,3528.90,0.00,0.00,0.00,0000 0000 0000 A000 020008
2018-10-09 05:04:18,0.00,0.00,0.00,25.37,29.36,31.61,0.00,-2.67,1018.11,2017.79,3593.00,3065.90,3528.46,0.00,0.00,0.00,0000 0000 0000 A000 020008
2018-10-09 05:09:19,0.00,0.00,0.00,25.39,29.39,31.63,0.00,-2.62,1018.10,2017.39,3592.99,3065.44,3528.05,0.00,0.00,0.00,0000 0000 0000 A000 020008
2018-10-09 05:14:21,0.00,0.00,0.00,25.41,29.41,31.63,0.00,-2.72,1018.08,2017.19,3592.96,3065.13,3528.00,0.00,0.00,0.00,0000 0000 0000 A000 020008
2018-10-09 05:19:22,0.00,0.00,0.00,25.42,29.42,31.69,0.00,-2.67,1018.08,2017.06,3592.68,3065.03,3528.00,0.00,0.00,0.00,0000 0000 0000 A000 020008
2018-10-09 05:24:24,0.00,0.00,0.00,25.45,29.45,31.73,0.00,-2.75,1018.08,2017.01,3592.14,3065.00,3527.97,0.00,0.00,0.00,0000 0000 0000 A000 020008
2018-10-09 05:29:25,0.00,0.00,0.00,25.46,29.47,31.71,0.00,-2.70,1018.08,2017.00,3592.02,3064.99,3527.84,0.00,0.00,0.00,0000 0000 0000 A000 020008
2018-10-09 05:34:26,0.00,0.00,0.00,25.48,29.49,31.74,0.00,-2.59,1018.01,2017.00,3592.00,3064.98,3527.39,0.00,0.00,0.00,0000 0000 0000 A000 020008
2018-10-09 05:39:27,0.00,0.00,0.00,25.51,29.51,31.79,0.00,-2.63,1017.82,2017.00,3591.99,3064.82,3527.07,0.00,0.00,0.00,0000 0000 0000 A000 020008
2018-10-09 05:44:28,0.00,0.00,0.00,25.54,29.52,31.77,0.00,-2.64,1017.87,2016.97,3591.87,3064.20,3527.00,0.00,0.00,0.00,0000 0000 0000 A000 020008
2018-10-09 05:49:30,0.00,0.00,0.00,25.56,29.55,31.82,0.00,-2.70,1017.77,2016.96,3591.52,3064.03,3526.99,0.00,0.00,0.00,0000 0000 0000 A000 020008
2018-10-09 05:54:31,0.00,0.00,0.00,25.58,29.57,31.84,0.00,-2.73,1017.72,2016.92,3591.23,3064.01,3526.97,0.00,0.00,0.00,0000 0000 0000 A000 020008
2018-10-09 05:59:32,0.00,0.00,0.00,25.60,29.59,31.86,0.00,-2.71,1017.72,2016.86,3591.10,3064.00,3526.92,0.00,0.00,0.00,0000 0000 0000 A000 020008
2018-10-09 06:04:33,0.00,0.00,0.00,25.61,29.60,31.84,0.00,-2.65,1017.69,2016.65,3591.02,3064.00,3526.55,0.00,0.00,0.00,0000 0000 0000 A000 020008
2018-10-09 06:09:34,0.00,0.00,0.00,25.62,29.62,31.88,0.00,-2.73,1017.65,2016.36,3591.00,3064.00,3526.17,0.00,0.00,0.00,0000 0000 0000 A000 020008
2018-10-09 06:14:35,0.00,0.00,0.00,25.62,29.64,31.91,0.00,-2.74,1017.62,2016.08,3590.99,3063.97,3526.02,0.00,0.00,0.00,0000 0000 0000 A000 020008
2018-10-09 06:19:37,0.00,0.00,0.00,25.63,29.66,31.93,0.00,-2.76,1017.60,2016.02,3590.98,3063.85,3526.00,0.00,0.00,0.00,0000 0000 0000 A000 020008
2018-10-09 06:24:38,0.00,0.00,0.00,25.63,29.67,31.89,0.00,-2.74,1017.59,2016.01,3590.93,3063.44,3526.00,0.00,0.00,0.00,0000 0000 0000 A000 020008
2018-10-09 06:29:39,0.00,0.00,0.00,25.62,29.70,31.95,0.00,-2.75,1017.59,2016.00,3590.54,3063.14,3525.95,0.00,0.00,0.00,0000 0000 0000 A000 020008
2018-10-09 06:34:40,0.00,0.00,0.00,25.62,29.71,31.87,0.00,-2.79,1017.58,2016.00,3590.26,3063.06,3525.91,0.00,0.00,0.00,0000 0000 0000 A000 020008
2018-10-09 06:39:41,0.00,0.00,0.00,25.63,29.72,31.92,0.00,-2.75,1017.53,2016.00,3590.04,3063.01,3525.44,0.00,0.00,0.00,0000 0000 0000 A000 020008
2018-10-09 06:44:43,0.00,0.00,0.00,25.65,29.75,31.94,0.00,-2.75,1017.37,2016.00,3590.00,3063.00,3525.07,0.00,0.00,0.00,0000 0000 0000 A000 020008
2018-10-09 06:49:43,0.00,0.00,0.00,25.67,29.76,31.96,0.00,-2.75,1017.22,2015.99,3590.00,3063.00,3525.01,0.00,0.00,0.00,0000 0000 0000 A000 020008
2018-10-09 06:54:45,0.00,0.00,0.00,25.67,29.77,31.96,0.00,-2.74,1017.12,2015.99,3590.00,3062.97,3525.00,0.00,0.00,0.00,0000 0000 0000 A000 020008
2018-10-09 06:59:46,0.00,0.00,0.00,25.68,29.79,32.00,0.00,-2.75,1017.12,2015.97,3589.95,3062.73,3525.00,0.00,0.00,0.00,0000 0000 0000 A000 020008
2018-10-09 07:04:47,0.00,0.00,0.00,25.69,29.80,32.02,0.00,-2.74,1017.12,2015.86,3589.52,3062.12,3524.87,0.00,0.00,0.00,0000 0000 0000 A000 020008
2018-10-09 07:09:49,0.00,0.00,0.00,25.70,29.82,32.01,0.00,-2.76,1017.11,2015.58,3589.16,3062.01,3524.51,0.00,0.00,0.00,0000 0000 0000 A000 020008
2018-10-09 07:14:50,0.00,0.00,0.00,25.70,29.84,31.99,0.00,-2.76,1017.11,2015.49,3589.09,3062.01,3524.33,0.00,0.00,0.00,0000 0000 0000 A000 020008
2018-10-09 07:19:51,0.00,0.00,0.00,25.70,29.85,32.02,0.00,-2.76,1017.11,2015.35,3589.03,3062.00,3524.16,0.00,0.00,0.00,0000 0000 0000 A000 020008
2018-10-09 07:24:52,0.00,0.00,0.00,25.71,29.87,32.01,0.00,-2.75,1017.09,2015.14,3589.01,3062.00,3524.02,0.00,0.00,0.00,0000 0000 0000 A000 020008
2018-10-09 07:29:53,0.00,0.00,0.00,25.72,29.88,32.04,0.00,-2.75,1017.10,2015.04,3589.00,3062.00,3524.00,0.00,0.00,0.00,0000 0000 0000 A000 020008
2018-10-09 07:34:54,0.00,0.00,0.00,25.72,29.90,32.07,0.00,-2.75,1017.06,2015.03,3589.00,3061.98,3524.00,0.00,0.00,0.00,0000 0000 0000 A000 020008
2018-10-09 07:39:55,0.00,0.00,0.00,25.74,29.91,32.04,0.00,-2.78,1016.96,2015.00,3588.99,3061.98,3524.00,0.00,0.00,0.00,0000 0000 0000 A000 020008
2018-10-09 07:44:56,0.00,0.00,0.00,25.75,29.92,32.05,0.00,-2.76,1016.81,2015.00,3588.97,3061.91,3523.99,0.00,0.00,0.00,0000 0000 0000 A000 020008
2018-10-09 07:49:57,0.00,0.00,0.00,25.75,29.94,32.08,0.00,-2.77,1016.70,2015.00,3588.91,3061.63,3523.93,0.00,0.00,0.00,0000 0000 0000 A000 020008
2018-10-09 07:54:58,0.00,0.00,0.00,25.75,29.95,32.05,0.00,-2.78,1016.77,2014.99,3588.54,3061.16,3523.61,0.00,0.00,0.00,0000 0000 0000 A000 020008
2018-10-09 07:59:59,0.00,0.00,0.00,25.75,29.97,32.07,0.00,-2.78,1016.76,2014.99,3588.25,3061.05,3523.22,0.00,0.00,0.00,0000 0000 0000 A000 020008
2018-10-09 08:05:01,0.00,0.00,0.00,25.74,29.97,32.09,0.00,-2.82,1016.64,2014.98,3588.05,3061.01,3523.04,0.00,0.00,0.00,0000 0000 0000 A000 020008
2018-10-09 08:10:02,0.00,0.00,0.00,25.74,29.99,32.07,0.00,-2.85,1016.66,2014.94,3588.00,3061.00,3523.00,0.00,0.00,0.00,0000 0000 0000 A000 020008
2018-10-09 08:15:03,0.00,0.00,0.00,25.73,30.00,32.08,0.00,-2.93,1016.68,2014.87,3588.00,3060.99,3523.00,0.00,0.00,0.00,0000 0000 0000 A000 020008
2018-10-09 08:20:04,0.00,0.00,0.00,25.72,30.01,32.09,0.00,-2.99,1016.66,2014.82,3588.00,3060.99,3523.00,0.00,0.00,0.00,0000 0000 0000 A000 020008
2018-10-09 08:25:05,0.00,0.00,0.00,25.73,30.02,32.09,0.00,-2.99,1016.65,2014.71,3588.00,3060.99,3523.00,0.00,0.00,0.00,0000 0000 0000 A000 020008
2018-10-09 08:30:07,0.00,0.00,0.00,25.74,30.03,32.07,0.00,-2.97,1016.64,2014.62,3588.00,3060.99,3522.99,0.00,0.00,0.00,0000 0000 0000 A000 020008
2018-10-09 08:35:08,0.00,0.00,0.00,25.75,30.05,32.10,0.00,-2.99,1016.62,2014.35,3587.98,3060.97,3522.97,0.00,0.00,0.00,0000 0000 0000 A000 020008
2018-10-09 08:40:10,0.00,0.00,0.00,25.75,30.05,32.14,0.00,-2.99,1016.62,2014.15,3587.97,3060.93,3522.96,0.00,0.00,0.00,0000 0000 0000 A000 020008
2018-10-09 08:45:11,0.00,0.00,0.00,25.75,30.07,32.13,0.00,-3.00,1016.62,2014.11,3587.97,3060.95,3522.93,0.00,0.00,0.00,0000 0000 0000 A000 020008
2018-10-09 08:50:12,0.00,0.00,0.00,25.76,30.07,32.16,0.00,-3.00,1016.62,2014.07,3587.94,3060.86,3522.78,0.00,0.00,0.00,0000 0000 0000 A000 020008
2018-10-09 08:55:13,0.00,0.00,0.00,25.77,30.08,32.13,0.00,-2.98,1016.61,2014.03,3587.55,3060.44,3522.28,0.00,0.00,0.00,0000 0000 0000 A000 020008
2018-10-09 09:00:14,0.00,0.00,0.00,25.77,30.10,32.16,0.00,-3.00,1016.61,2014.01,3587.30,3060.17,3522.09,0.00,0.00,0.00,0000 0000 0000 A000 020008
2018-10-09 09:05:15,0.00,0.00,0.00,25.77,30.10,32.18,0.00,-3.00,1016.61,2014.01,3587.17,3060.11,3522.04,0.00,0.00,0.00,0000 0000 0000 A000 020008
2018-10-09 09:10:17,0.00,0.00,0.00,25.77,30.12,32.19,0.00,-3.00,1016.60,2014.01,3587.07,3060.04,3522.01,0.00,0.00,0.00,0000 0000 0000 A000 020008
2018-10-09 09:15:18,0.00,0.00,0.00,25.77,30.12,32.13,0.00,-3.00,1016.58,2014.00,3587.06,3060.04,3522.01,0.00,0.00,0.00,0000 0000 0000 A000 020008
2018-10-09 09:20:19,0.00,0.00,0.00,25.77,30.12,32.14,0.00,-3.00,1016.58,2014.00,3587.01,3060.00,3522.00,0.00,0.00,0.00,0000 0000 0000 A000 020008
2018-10-09 09:25:21,0.00,0.00,0.00,25.77,30.14,32.13,0.00,-3.00,1016.53,2014.00,3587.00,3060.00,3522.00,0.00,0.00,0.00,0000 0000 0000 A000 020008
2018-10-09 09:30:22,0.00,0.00,0.00,25.77,30.15,32.18,0.00,-3.00,1016.30,2014.00,3587.00,3060.00,3522.00,0.00,0.00,0.00,0000 0000 0000 A000 020008
2018-10-09 09:35:23,0.00,0.00,0.00,25.79,30.15,32.15,0.00,-3.00,1016.18,2014.00,3587.00,3060.00,3522.00,0.00,0.00,0.00,0000 0000 0000 A000 020008
2018-10-09 09:40:24,0.00,0.00,0.00,25.80,30.16,32.19,0.00,-3.00,1016.14,2014.00,3587.00,3060.00,3521.98,0.00,0.00,0.00,0000 0000 0000 A000 020008
2018-10-09 09:45:26,0.00,0.00,0.00,25.80,30.17,32.23,0.00,-2.98,1016.13,2013.99,3586.99,3059.99,3521.96,0.00,0.00,0.00,0000 0000 0000 A000 020008
2018-10-09 09:50:27,0.00,0.00,0.00,25.80,30.17,32.24,0.00,-3.00,1016.13,2013.99,3586.99,3059.99,3521.90,0.00,0.00,0.00,0000 0000 0000 A000 020008
2018-10-09 09:55:29,0.00,0.00,0.00,25.80,30.18,32.19,0.00,-3.00,1016.13,2013.98,3586.95,3059.98,3521.70,0.00,0.00,0.00,0000 0000 0000 A000 020008
2018-10-09 10:00:30,0.00,0.00,0.00,25.80,30.20,32.21,0.00,-3.00,1016.13,2013.98,3586.96,3059.97,3521.56,0.00,0.00,0.00,0000 0000 0000 A000 020008
2018-10-09 10:05:31,0.00,0.00,0.00,25.80,30.20,32.19,0.00,-3.00,1016.13,2013.97,3586.91,3059.95,3521.33,0.00,0.00,0.00,0000 0000 0000 A000 020008
2018-10-09 10:10:32,0.00,0.00,0.00,25.80,30.20,32.24,0.00,-3.00,1016.13,2013.96,3586.88,3059.92,3521.28,0.00,0.00,0.00,0000 0000 0000 A000 020008
2018-10-09 10:15:33,0.00,0.00,0.00,25.80,30.21,32.20,0.00,-3.00,1016.10,2013.96,3586.58,3059.80,3521.10,0.00,0.00,0.00,0000 0000 0000 A000 020008
2018-10-09 10:20:34,0.00,0.00,0.00,25.80,30.22,32.19,0.00,-3.01,1016.05,2013.94,3586.40,3059.64,3521.03,0.00,0.00,0.00,0000 0000 0000 A000 020008
2018-10-09 10:25:35,0.00,0.00,0.00,25.80,30.22,32.20,0.00,-3.00,1016.01,2013.87,3586.23,3059.45,3521.02,0.00,0.00,0.00,0000 0000 0000 A000 020008
2018-10-09 10:30:36,0.00,0.00,0.00,25.80,30.22,32.17,0.00,-3.00,1015.77,2013.72,3586.07,3059.17,3521.00,0.00,0.00,0.00,0000 0000 0000 A000 020008
2018-10-09 10:35:37,0.00,0.00,0.00,25.80,30.22,32.19,0.00,-3.00,1015.66,2013.75,3586.06,3059.16,3521.00,0.00,0.00,0.00,0000 0000 0000 A000 020008
2018-10-09 10:40:38,0.00,0.00,0.00,25.80,30.24,32.15,0.00,-3.00,1015.65,2013.76,3586.07,3059.19,3521.00,0.00,0.00,0.00,0000 0000 0000 A000 020008
2018-10-09 10:45:39,0.00,0.00,0.00,25.80,30.25,32.19,0.00,-3.00,1015.64,2013.56,3586.02,3059.06,3521.00,0.00,0.00,0.00,0000 0000 0000 A000 020008
2018-10-09 10:50:40,0.00,0.00,0.00,25.82,30.25,32.21,0.00,-3.01,1015.64,2013.25,3586.01,3059.01,3521.00,0.00,0.00,0.00,0000 0000 0000 A000 020008
2018-10-09 10:55:41,0.00,0.00,0.00,25.82,30.25,32.21,0.00,-3.00,1015.64,2013.33,3586.01,3059.03,3521.00,0.00,0.00,0.00,0000 0000 0000 A000 020008
2018-10-09 11:00:42,0.00,0.00,0.00,25.82,30.25,32.20,-0.01,-3.00,1015.64,2013.20,3586.00,3059.01,3521.00,0.00,0.00,0.00,0000 0000 0000 A000 020008
2018-10-09 11:05:43,0.00,0.00,0.00,25.82,30.27,32.18,-0.00,-3.01,1015.63,2013.18,3586.01,3059.02,3521.00,0.00,0.00,0.00,0000 0000 0000 A000 020008
2018-10-09 11:10:44,0.00,0.00,0.00,25.82,30.27,32.18,-0.00,-3.02,1015.63,2013.14,3586.00,3059.01,3520.99,0.00,0.00,0.00,0000 0000 0000 A000 020008
2018-10-09 11:15:46,0.00,0.00,0.00,25.83,30.27,32.21,-0.00,-3.02,1015.50,2013.06,3586.00,3059.00,3520.99,0.00,0.00,0.00,0000 0000 0000 A000 020008
2018-10-09 11:20:47,0.00,0.00,0.00,25.84,30.27,32.20,-0.00,-3.02,1015.22,2013.05,3586.00,3059.00,3520.95,0.00,0.00,0.00,0000 0000 0000 A000 020008
2018-10-09 11:25:48,0.00,0.00,0.00,25.85,30.28,32.24,-0.00,-3.02,1015.17,2013.06,3586.00,3059.00,3520.96,0.00,0.00,0.00,0000 0000 0000 A000 020008
2018-10-09 11:30:49,0.00,0.00,0.00,25.85,30.30,32.24,0.00,-3.01,1015.15,2013.03,3586.00,3059.00,3520.96,0.00,0.00,0.00,0000 0000 0000 A000 020008
2018-10-09 11:35:50,0.00,0.00,0.00,25.85,30.30,32.24,0.00,-3.02,1015.15,2013.04,3586.00,3059.00,3520.93,0.00,0.00,0.00,0000 0000 0000 A000 020008
2018-10-09 11:40:51,0.00,0.00,0.00,25.85,30.30,32.27,-0.00,-3.04,1015.15,2013.02,3585.99,3059.00,3520.78,0.00,0.00,0.00,0000 0000 0000 A000 020008
2018-10-09 11:45:53,0.00,0.00,0.00,25.85,30.30,32.26,0.00,-3.04,1015.07,2013.04,3585.98,3059.00,3520.69,0.00,0.00,0.00,0000 0000 0000 A000 020008
2018-10-09 11:50:54,0.00,0.00,0.00,25.85,30.31,32.29,-0.00,-3.03,1015.02,2013.03,3585.98,3059.00,3520.73,0.00,0.00,0.00,0000 0000 0000 A000 020008
2018-10-09 11:55:55,0.00,0.00,0.00,25.86,30.32,32.32,-0.01,-3.02,1014.83,2013.01,3585.96,3058.99,3520.44,0.00,0.00,0.00,0000 0000 0000 A000 020008
2018-10-09 12:00:56,0.00,0.00,0.00,25.87,30.32,32.26,-0.00,-3.02,1014.69,2013.02,3585.96,3058.98,3520.16,0.00,0.00,0.00,0000 0000 0000 A000 020008
2018-10-09 12:05:58,0.00,0.00,0.00,25.87,30.32,32.24,-0.00,-3.01,1014.67,2013.00,3585.89,3058.98,3520.11,0.00,0.00,0.00,0000 0000 0000 A000 020008
2018-10-09 12:10:59,0.00,0.00,0.00,25.87,30.32,32.30,-0.01,-3.01,1014.66,2013.00,3585.62,3058.94,3520.02,0.00,0.00,0.00,0000 0000 0000 A000 020008
2018-10-09 12:16:00,0.00,0.00,0.00,25.87,30.33,32.32,-0.00,-2.99,1014.66,2013.00,3585.50,3058.90,3520.02,0.00,0.00,0.00,0000 0000 0000 A000 020008
2018-10-09 12:21:01,0.00,0.00,0.00,25.87,30.34,32.29,-0.01,-2.98,1014.66,2013.00,3585.67,3058.94,3520.03,0.00,0.00,0.00,0000 0000 0000 A000 020008
2018-10-09 12:26:03,0.00,0.00,0.00,25.87,30.35,32.29,-0.00,-2.90,1014.58,2013.00,3585.48,3058.83,3520.02,0.00,0.00,0.00,0000 0000 0000 A000 020008
2018-10-09 12:31:04,0.00,0.00,0.00,25.87,30.35,32.32,-0.01,-2.88,1014.40,2013.00,3585.40,3058.81,3520.01,0.00,0.00,0.00,0000 0000 0000 A000 020008
2018-10-09 12:36:05,0.00,0.00,0.00,25.87,30.35,32.35,0.00,-2.92,1014.30,2013.00,3585.48,3058.82,3520.00,0.00,0.00,0.00,0000 0000 0000 A000 020008
2018-10-09 12:41:07,0.00,0.00,0.00,25.86,30.35,32.30,-0.01,-2.91,1014.19,2013.00,3585.52,3058.87,3520.01,0.00,0.00,0.00,0000 0000 0000 A000 020008
2018-10-09 12:46:08,0.00,0.00,0.00,25.85,30.35,32.36,-0.01,-2.95,1014.18,2013.00,3585.58,3058.86,3520.02,0.00,0.00,0.00,0000 0000 0000 A000 020008
2018-10-09 12:51:09,0.00,0.00,0.00,25.84,30.35,32.34,-0.01,-2.96,1014.18,2013.00,3585.34,3058.68,3520.01,0.00,0.00,0.00,0000 0000 0000 A000 020008
2018-10-09 12:56:10,0.00,0.00,0.00,25.82,30.35,32.34,-0.01,-2.97,1014.18,2013.00,3585.16,3058.56,3520.00,0.00,0.00,0.00,0000 0000 0000 A000 020008
2018-10-09 13:01:11,0.00,0.00,0.00,25.82,30.35,32.28,-0.00,-2.94,1014.17,2013.00,3585.15,3058.51,3520.00,0.00,0.00,0.00,0000 0000 0000 A000 020008
2018-10-09 13:06:13,0.00,0.00,0.00,25.81,30.35,32.32,-0.01,-3.01,1014.14,2013.00,3585.13,3058.54,3520.00,0.00,0.00,0.00,0000 0000 0000 A000 020008
2018-10-09 13:11:14,0.00,0.00,0.00,25.80,30.35,32.30,-0.01,-2.99,1013.92,2013.00,3585.09,3058.34,3520.00,0.00,0.00,0.00,0000 0000 0000 A000 020008
2018-10-09 13:16:15,0.00,0.00,0.00,25.79,30.35,32.32,-0.01,-3.01,1013.72,2013.00,3585.07,3058.36,3520.00,0.00,0.00,0.00,0000 0000 0000 A000 020008
2018-10-09 13:21:16,0.00,0.00,0.00,25.77,30.35,32.21,-0.01,-3.02,1013.70,2013.00,3585.12,3058.55,3520.00,0.00,0.00,0.00,0000 0000 0000 A000 020008
2018-10-09 13:26:18,0.00,0.00,0.00,25.77,30.35,32.28,-0.01,-3.00,1013.69,2012.99,3585.19,3058.69,3520.00,0.00,0.00,0.00,0000 0000 0000 A000 020008